Weather History for KCFS - July, 2013

Change the Weather History Date:

Wednesday, July 10, 2013

  Actual Average (KMBS) Record (KMBS)
Temperature  
Mean Temperature 73 °F 71 °F  
Max Temperature 84 °F 82 °F 90 °F (2007)
Min Temperature 62 °F 60 °F 50 °F (1996)
Degree Days  
Heating Degree Days 0    
Month to date heating degree days  
Since 1 June heating degree days  
Since 1 July heating degree days  
Cooling Degree Days 8    
Month to date cooling degree days  
Year to date cooling degree days  
Since 1 June cooling degree days  
Growing Degree Days 23 (Base 50)    
Moisture  
Dew Point 65 °F    
Average Humidity 73    
Maximum Humidity 97    
Minimum Humidity 42    
Precipitation  
Precipitation 0.00 in 0.07 in 0.99 in (2003)
Month to date precipitation 0.83  
Year to date precipitation 15.46  
Snow  
Snow 0.00 in - - ()
Month to date snowfall  
Since 1 June snowfall  
Since 1 July snowfall  
Snow Depth -    
Sea Level Pressure  
Sea Level Pressure 29.82 in    
Wind  
Wind Speed 9 mph (West)    
Max Wind Speed 20 mph    
Max Gust Speed 28 mph    
Visibility 8 miles    
Events      
T = Trace of Precipitation, MM = Missing Value Source: NWS Daily Summary

Daily Weather History Graph

Daily Weather History Graph

Search for Another Location

Airport or City:

Trip Planner

Search our weather history database for the weather conditions in past years. The results will help you decide how hot, cold, wet, or windy it might be!

Date:

Astronomy

Jul. 10, 2013 Rise Set
Actual Time 6:02 AM EDT 9:15 PM EDT
Civil Twilight 5:27 AM EDT 9:50 PM EDT
Nautical Twilight 4:42 AM EDT 10:34 PM EDT
Astronomical Twilight 3:47 AM EDT 11:29 PM EDT
Moon 8:28 AM EDT (7/10) 10:17 PM EDT (7/10)
Length of Visible Light 16h 22m
Length of Day
15h 12m
Waxing Crescent, 5% of the Moon is Illuminated
Jul 10
Waxing Crescent
Jul 15
First Quarter
Jul 22
Full
Jul 29
Last Quarter
Aug 6
New

Hourly Weather History & Observations

Time (EDT) Temp. Heat Index Dew Point Humidity Pressure Visibility Wind Dir Wind Speed Gust Speed Precip Events Conditions
12:15 AM 72.5 °F - 71.6 °F 97% 29.85 in 5.0 mi SSW 5.8 mph - N/A   Overcast
12:34 AM 72.7 °F - 71.8 °F 97% 29.84 in 5.0 mi SSW 5.8 mph - N/A   Overcast
12:55 AM 73.0 °F - 72.1 °F 97% 29.84 in 5.0 mi SSW 4.6 mph - N/A   Overcast
1:15 AM 73.0 °F - 72.1 °F 97% 29.82 in 5.0 mi South 4.6 mph - N/A   Overcast
1:34 AM 73.0 °F - 72.1 °F 97% 29.81 in 5.0 mi SSW 4.6 mph - N/A   Scattered Clouds
1:55 AM 73.0 °F - 72.1 °F 97% 29.80 in 5.0 mi SSW 8.1 mph - N/A   Scattered Clouds
2:14 AM 73.0 °F - 71.8 °F 96% 29.79 in 7.0 mi SSW 6.9 mph - N/A   Scattered Clouds
2:35 AM 72.9 °F - 71.6 °F 96% 29.79 in 7.0 mi SSW 8.1 mph - N/A   Clear
2:55 AM 72.7 °F - 71.6 °F 96% 29.79 in 5.0 mi SSW 9.2 mph - N/A   Clear
3:14 AM 73.0 °F - 72.0 °F 96% 29.78 in 5.0 mi South 9.2 mph - N/A   Scattered Clouds
3:35 AM 73.4 °F - 72.1 °F 96% 29.78 in 5.0 mi SSW 8.1 mph - N/A   Overcast
3:55 AM 73.4 °F - 72.3 °F 96% 29.78 in 4.0 mi SW 6.9 mph - N/A   Overcast
4:14 AM 73.4 °F - 72.5 °F 97% 29.78 in 4.0 mi SW 6.9 mph - N/A   Mostly Cloudy
4:35 AM 73.6 °F - 72.7 °F 97% 29.78 in 4.0 mi SW 6.9 mph - N/A   Overcast
4:55 AM 74.3 °F - 73.4 °F 97% 29.78 in 4.0 mi SW 6.9 mph - N/A   Overcast
5:14 AM 74.7 °F - 73.6 °F 96% 29.79 in 5.0 mi WSW 6.9 mph - N/A   Overcast
5:35 AM 74.7 °F - 73.4 °F 96% 29.78 in 5.0 mi SW 8.1 mph - N/A   Mostly Cloudy
5:55 AM 74.7 °F - 73.4 °F 96% 29.79 in 5.0 mi WSW 9.2 mph - N/A   Overcast
6:14 AM 74.7 °F - 72.9 °F 94% 29.79 in 4.0 mi WSW 8.1 mph - N/A   Mostly Cloudy
6:35 AM 74.3 °F - 72.7 °F 95% 29.79 in 4.0 mi WSW 6.9 mph - N/A   Clear
6:55 AM 74.3 °F - 72.5 °F 94% 29.80 in 4.0 mi WSW 9.2 mph - N/A   Clear
7:15 AM 74.5 °F - 72.9 °F 95% 29.80 in 4.0 mi WSW 10.4 mph - N/A   Scattered Clouds
7:35 AM 75.4 °F - 72.5 °F 91% 29.80 in 7.0 mi WSW 8.1 mph - N/A   Clear
7:54 AM 76.1 °F - 72.5 °F 89% 29.80 in 7.0 mi WSW 8.1 mph - N/A   Clear
8:15 AM 76.6 °F - 72.5 °F 87% 29.81 in 10.0 mi WSW 9.2 mph - N/A   Clear
8:35 AM 77.4 °F - 72.7 °F 85% 29.80 in 10.0 mi WSW 9.2 mph 16.1 mph N/A   Clear
8:54 AM 78.8 °F - 72.3 °F 80% 29.80 in 10.0 mi West 9.2 mph - N/A   Clear
9:15 AM 79.2 °F - 71.2 °F 77% 29.79 in 10.0 mi West 10.4 mph - N/A   Clear
9:35 AM 79.7 °F - 69.6 °F 71% 29.80 in 10.0 mi West 11.5 mph 19.6 mph N/A   Clear
9:54 AM 80.6 °F 83.6 °F 69.3 °F 68% 29.79 in 10.0 mi West 13.8 mph 20.7 mph N/A   Clear
10:15 AM 81.7 °F 85.2 °F 69.8 °F 67% 29.80 in 10.0 mi West 13.8 mph - N/A   Clear
10:35 AM 81.5 °F 84.9 °F 69.6 °F 67% 29.80 in 10.0 mi West 11.5 mph 16.1 mph N/A   Clear
10:54 AM 82.0 °F 85.7 °F 69.8 °F 66% 29.79 in 10.0 mi WSW 11.5 mph - N/A   Scattered Clouds
11:15 AM 81.9 °F 85.0 °F 68.7 °F 64% 29.80 in 10.0 mi WSW 11.5 mph 16.1 mph N/A   Scattered Clouds
11:35 AM 82.6 °F 85.9 °F 68.9 °F 63% 29.79 in 10.0 mi West 11.5 mph - N/A   Scattered Clouds
11:55 AM 82.0 °F 86.1 °F 70.3 °F 68% 29.79 in 10.0 mi West 9.2 mph 18.4 mph N/A   Mostly Cloudy
12:15 PM 82.8 °F 86.7 °F 69.8 °F 65% 29.79 in 10.0 mi WSW 10.4 mph - N/A   Mostly Cloudy
12:34 PM 83.3 °F 87.4 °F 69.8 °F 64% 29.79 in 10.0 mi WSW 11.5 mph 17.3 mph N/A   Mostly Cloudy
12:55 PM 84.0 °F 87.6 °F 68.9 °F 60% 29.79 in 10.0 mi WSW 10.4 mph 19.6 mph N/A   Mostly Cloudy
1:15 PM 84.7 °F 88.5 °F 69.1 °F 59% 29.77 in 10.0 mi WSW 9.2 mph - N/A   Mostly Cloudy
1:34 PM 82.2 °F 86.0 °F 69.8 °F 66% 29.78 in 10.0 mi West 10.4 mph - N/A   Overcast
1:55 PM 84.6 °F 87.9 °F 68.5 °F 58% 29.78 in 10.0 mi West 18.4 mph 23.0 mph N/A   Mostly Cloudy
2:15 PM 84.6 °F 87.9 °F 68.2 °F 58% 29.78 in 10.0 mi WNW 12.7 mph 20.7 mph N/A   Scattered Clouds
2:34 PM 84.6 °F 86.3 °F 64.9 °F 52% 29.78 in 10.0 mi NW 19.6 mph 26.5 mph N/A   Mostly Cloudy
2:55 PM 80.2 °F 82.5 °F 66.4 °F 63% 29.79 in 10.0 mi NW 13.8 mph 26.5 mph N/A   Scattered Clouds
3:14 PM 80.6 °F 82.4 °F 64.9 °F 59% 29.80 in 10.0 mi NW 18.4 mph 25.3 mph N/A   Clear
3:35 PM 79.3 °F - 63.3 °F 58% 29.80 in 10.0 mi NW 19.6 mph 26.5 mph N/A   Scattered Clouds
3:55 PM 80.6 °F 82.2 °F 64.2 °F 57% 29.82 in 10.0 mi NW 17.3 mph 27.6 mph N/A   Scattered Clouds
4:14 PM 78.3 °F - 61.3 °F 56% 29.82 in 10.0 mi NW 16.1 mph 24.2 mph N/A   Mostly Cloudy
4:35 PM 78.8 °F - 61.7 °F 56% 29.82 in 10.0 mi NNW 15.0 mph 21.9 mph N/A   Scattered Clouds
4:55 PM 77.4 °F - 60.4 °F 56% 29.82 in 10.0 mi North 19.6 mph 26.5 mph N/A   Mostly Cloudy
5:14 PM 76.5 °F - 59.4 °F 55% 29.82 in 10.0 mi NNW 18.4 mph 24.2 mph N/A   Mostly Cloudy
5:35 PM 76.6 °F - 56.3 °F 49% 29.83 in 10.0 mi NW 19.6 mph 27.6 mph N/A   Scattered Clouds
5:55 PM 75.7 °F - 54.9 °F 48% 29.84 in 10.0 mi NNW 19.6 mph 27.6 mph N/A   Scattered Clouds
6:14 PM 75.9 °F - 54.1 °F 47% 29.83 in 10.0 mi NNW 17.3 mph 24.2 mph N/A   Scattered Clouds
6:35 PM 75.6 °F - 51.8 °F 43% 29.83 in 10.0 mi NW 17.3 mph 24.2 mph N/A   Clear
6:54 PM 75.2 °F - 50.9 °F 42% 29.84 in 10.0 mi NW 17.3 mph 23.0 mph N/A   Clear
7:15 PM 74.8 °F - 52.0 °F 45% 29.85 in 10.0 mi NW 15.0 mph 20.7 mph N/A   Clear
7:35 PM 74.3 °F - 52.3 °F 46% 29.85 in 10.0 mi NNW 12.7 mph 21.9 mph N/A   Clear
7:54 PM 73.6 °F - 53.8 °F 50% 29.86 in 10.0 mi NW 15.0 mph - N/A   Clear
8:15 PM 72.5 °F - 54.5 °F 53% 29.87 in 10.0 mi NW 11.5 mph - N/A   Clear
8:35 PM 71.6 °F - 51.8 °F 50% 29.89 in 10.0 mi NW 8.1 mph 18.4 mph N/A   Clear
8:54 PM 70.7 °F - 52.7 °F 53% 29.90 in 10.0 mi NW 6.9 mph - N/A   Clear
9:15 PM 68.2 °F - 54.9 °F 62% 29.90 in 10.0 mi NW 5.8 mph - N/A   Scattered Clouds
9:35 PM 67.1 °F - 55.6 °F 66% 29.91 in 10.0 mi NW 4.6 mph - N/A   Clear
9:54 PM 67.5 °F - 54.0 °F 62% 29.92 in 10.0 mi NW 5.8 mph - N/A   Clear
10:15 PM 67.5 °F - 53.4 °F 61% 29.94 in 10.0 mi WNW 4.6 mph - N/A   Clear
10:35 PM 66.9 °F - 54.0 °F 63% 29.95 in 10.0 mi WNW 4.6 mph - N/A   Clear
10:54 PM 66.2 °F - 54.0 °F 65% 29.95 in 10.0 mi WNW 5.8 mph - N/A   Clear
11:15 PM 63.9 °F - 56.8 °F 78% 29.95 in 10.0 mi Calm Calm - N/A   Clear
11:34 PM 62.1 °F - 57.2 °F 84% 29.95 in 10.0 mi Calm Calm - N/A   Clear
11:55 PM 62.4 °F - 57.0 °F 82% 29.95 in 10.0 mi Calm Calm - N/A   Clear